ZHONGXING-6B

Last updated on Tue Sep 16 2025 00:02:46 GMT+0000 (Coordinated Universal Time)

1 31800U 07031A 25258.60702271 -.00000375 00000+0 00000+0 0 9994 2 31800 1.6818 84.8429 0004092 119.5673 122.3349 1.00269385 66673
UTC large
Height (km)
Speed (km/s)
/
Latitude / Longitude
Inclination (degrees)
Orbital Period (minutes)
Azimuth
Elevation
Range (km)
Doppler Factor

Next 0 passes for location: London (51.5072 / 0.1276)

Sorry there are no passes over London.